TimeCST,TemperatureF,Dew PointF,Humidity,Sea Level PressureIn,VisibilityMPH,Wind Direction,Wind SpeedMPH,Gust SpeedMPH,PrecipitationIn,Events,Conditions,WindDirDegrees,DateUTC
12:39 AM,55.4,53.6,94,30.04,10.0,East,4.6,-,N/A,,Mostly Cloudy,80,2012-12-07 06:39:00
12:53 AM,57.9,55.0,90,30.04,10.0,East,4.6,-,N/A,,Overcast,80,2012-12-07 06:53:00
1:53 AM,59.0,55.0,87,30.04,10.0,East,4.6,-,N/A,,Overcast,90,2012-12-07 07:53:00
2:53 AM,60.1,55.9,86,30.03,10.0,East,5.8,-,N/A,,Overcast,90,2012-12-07 08:53:00
3:53 AM,61.0,55.9,83,30.01,10.0,East,8.1,-,N/A,,Overcast,90,2012-12-07 09:53:00
4:53 AM,61.0,55.9,83,30.02,10.0,ENE,8.1,-,N/A,,Overcast,70,2012-12-07 10:53:00
5:53 AM,61.0,55.9,83,30.04,10.0,East,10.4,-,N/A,,Overcast,90,2012-12-07 11:53:00
6:53 AM,60.1,55.0,83,30.04,10.0,East,10.4,-,N/A,,Overcast,90,2012-12-07 12:53:00
7:53 AM,60.1,54.0,80,30.05,10.0,East,11.5,-,N/A,,Overcast,90,2012-12-07 13:53:00
8:12 AM,60.8,53.6,77,30.06,10.0,East,9.2,-,N/A,,Overcast,100,2012-12-07 14:12:00
8:53 AM,61.0,53.1,75,30.07,10.0,ENE,10.4,-,N/A,,Overcast,70,2012-12-07 14:53:00
9:50 AM,62.6,53.6,72,30.07,10.0,East,10.4,-,N/A,,Overcast,90,2012-12-07 15:50:00
9:53 AM,63.0,53.1,70,30.07,10.0,East,10.4,-,N/A,,Overcast,100,2012-12-07 15:53:00
10:53 AM,63.0,53.1,70,30.04,10.0,East,9.2,-,N/A,,Overcast,90,2012-12-07 16:53:00
11:53 AM,66.0,55.0,68,30.00,10.0,SE,4.6,-,N/A,,Mostly Cloudy,130,2012-12-07 17:53:00
12:27 PM,69.8,55.4,60,29.99,10.0,ESE,6.9,-,N/A,,Partly Cloudy,110,2012-12-07 18:27:00
12:53 PM,69.1,55.0,61,29.97,10.0,ESE,4.6,-,N/A,,Clear,110,2012-12-07 18:53:00
1:28 PM,69.8,55.4,60,29.97,10.0,East,6.9,-,N/A,,Mostly Cloudy,100,2012-12-07 19:28:00
1:53 PM,71.1,55.9,59,29.96,10.0,Calm,Calm,-,N/A,,Mostly Cloudy,0,2012-12-07 19:53:00
2:30 PM,69.8,55.4,60,29.97,10.0,SSW,5.8,-,N/A,,Mostly Cloudy,210,2012-12-07 20:30:00
2:53 PM,70.0,55.9,61,29.96,10.0,SSW,5.8,-,N/A,,Scattered Clouds,210,2012-12-07 20:53:00
3:53 PM,66.0,55.9,70,29.97,10.0,SSW,6.9,-,N/A,,Scattered Clouds,200,2012-12-07 21:53:00
4:53 PM,64.0,55.9,75,29.96,10.0,SE,4.6,-,N/A,,Overcast,130,2012-12-07 22:53:00
5:53 PM,63.0,55.9,78,29.98,10.0,SSW,4.6,-,N/A,,Overcast,200,2012-12-07 23:53:00
6:53 PM,62.6,55.4,77,29.99,10.0,South,3.5,-,N/A,,Overcast,190,2012-12-08 00:53:00
7:53 PM,62.1,55.9,80,29.99,10.0,South,3.5,-,N/A,,Overcast,190,2012-12-08 01:53:00
8:53 PM,61.0,55.0,81,29.99,10.0,Calm,Calm,-,N/A,,Mostly Cloudy,0,2012-12-08 02:53:00
9:53 PM,61.0,55.9,83,30.00,10.0,Calm,Calm,-,N/A,,Overcast,0,2012-12-08 03:53:00
10:53 PM,61.0,55.9,83,30.01,10.0,Calm,Calm,-,N/A,,Overcast,0,2012-12-08 04:53:00
11:53 PM,61.0,55.9,83,29.99,10.0,SE,6.9,-,N/A,,Overcast,130,2012-12-08 05:53:00